Location: Winthrop
(48.4780°N, 120.1850°W)
Time: 19:17:01
(UTC-08:00)

Envisat - Pass Details

Date: 02 December 2022
Orbit: 763 x 765 km, 98.2° (Epoch: 05 February)

Event Time Altitude Azimuth Distance (km) Brightness Sun altitude
Rises 03:37:57 0° 20° (NNE) 3,244 6.6 -38.0°
Reaches altitude 10° 03:40:27 10° 29° (NNE) 2,313 5.8 -37.6°
Enters shadow 03:42:00 19° 40° (NE) 1,785 5.3 -37.3°
